Skip Page Navigation
NASA JPL Caltech
NASA Logo - Jet Propulsion Laboratory + View the NASA Portal
+ Near-Earth Object (NEO) Program
Search JPL
JPL Home Earth Solar System Stars & Galaxies Technology
JPL Solar System Dynamics
BODIES ORBITS EPHEMERIDES TOOLS PHYSICAL DATA DISCOVERY FAQ SITE MAP
JPL Small-Body Database Browser
Search: [ help ]  
345705 (2006 VB14)
Classification: Aten [NEO]          SPK-ID: 2345705
Ephemeris | Orbit Diagram | Orbital Elements | Physical Parameters | Discovery Circumstances | Close-Approach Data ]

[ hide orbit diagram ]
Orbit Diagram
Note: Make sure you have Java enabled on your browser to see the applet. This applet is provided as a 3D orbit visualization tool. The applet was implemented using 2-body methods, and hence should not be used for determining accurate long-term trajectories (over several years or decades) or planetary encounter circumstances. For accurate long-term ephemerides, please instead use our Horizons system.
Orbit Viewer

Additional Notes: the orbits shown in the applet are color coded. The planets are white lines, and the asteroid/comet is a blue line. The bright white line indicates the portion of the orbit that is above the ecliptic plane, and the darker portion is below the ecliptic plane. Likewise for the asteroid/comet orbit, the light blue indicates the portion above the ecliptic plane, and the dark blue the portion below the ecliptic plane.

Orbit Viewer applet originally written and kindly provided by Osamu Ajiki (AstroArts), and further modified by Ron Baalke (JPL).


Orbital Elements at Epoch 2456400.5 (2013-Apr-18.0) TDB
Reference: JPL 95 (heliocentric ecliptic J2000)
 Element Value Uncertainty (1-sigma)   Units 
e .4214561010447074 1.3051e-07  
a .7668012182802045 2.6865e-09 AU
q .4436281665474979 9.9268e-08 AU
i 31.02253354966113 2.1953e-05 deg
node 258.7487313162748 2.6186e-06 deg
peri 346.4374741267195 1.9308e-05 deg
M 31.82049050991315 4.5289e-05 deg
tp 2456378.821611882456
(2013-Mar-27.32161188)
3.0848e-05 JED
period 245.2576813636629
0.67
1.2889e-06
3.529e-09
d
yr
n 1.467843934584865 7.7138e-09 deg/d
Q 1.089974270012911 3.8187e-09 AU
  Orbit Determination Parameters
   # obs. used (total)      703  
   data-arc span      2230 days (6.11 yr)  
   first obs. used      2006-11-15  
   last obs. used      2012-12-23  
   planetary ephem.      DE405  
   SB-pert. ephem.      SB405-CPV-2  
   condition code      0  
   fit RMS      .48558  
   data source      ORB  
   producer      Otto Matic  
   solution date      2013-Apr-29 15:52:44  

Additional Information
 Earth MOID = .078153 AU 
 T_jup = 7.382 
[ show covariance matrix ]

Ephemeris | Orbit Diagram | Orbital Elements | Physical Parameters | Discovery Circumstances | Close-Approach Data ]

Physical Parameter Table
Parameter Symbol Value Units Sigma Reference Notes
absolute magnitude H 18.536 mag .50797 95 autocmod 2.5c
rotation period rot_per 3.25 h n/a Asteroid Lightcurve DataBase (Rev. 2013-May-01) Published Reference List:
[Skiff, B.A.; Bowell, E.; Koehn, B.W.; Sanborn, J.J.; McLelland, K.P.; Warner, B.D. (2012) Minor Planet Bul. 39, 111-130.]

345705 (2006 VB14)          Discovered 2006-Nov-15 by CSS at Catalina (703)
Reference: 20121128/Numbers.arcLast Updated: 2012-12-03

[ show close-approach data ]
Ephemeris | Orbit Diagram | Orbital Elements | Physical Parameters | Discovery Circumstances | Close-Approach Data ]
ABOUT SSD CREDITS/AWARDS PRIVACY/COPYRIGHT GLOSSARY LINKS
FirstGov 2013-Jun-18 06:32 UT
(server date/time)  
NASA Home Page
Site Manager:   Donald K. Yeomans
Webmaster  Alan B. Chamberlin